EW0609 Weather Reports


time (UTC)temp
F
wind
direction
speed
knots
gust
knots
rain 1hr
in
rain 24hr
in
rain mn
in
humidity
%
barometer
mb
20260510115839 59 18 1.7 8.7 0.00 0.00 0.00 85 1015.8
20260510115736 59 30 2.6 8.7 0.00 0.00 0.00 84 1015.8
20260510114839 59 16 1.7 8.7 0.00 0.00 0.00 84 1015.7
20260510114339 59 1 1.7 7.8 0.00 0.00 0.00 84 1015.6
20260510113839 59 52 4.3 7.8 0.00 0.00 0.00 84 1015.7
20260510113340 59 49 1.7 7.8 0.00 0.00 0.00 84 1015.7
20260510112842 59 58 1.7 6.1 0.00 0.00 0.00 83 1015.6
20260510112340 60 58 1.7 6.1 0.00 0.00 0.00 83 1015.6
20260510111840 60 0 1.7 6.1 0.00 0.00 0.00 82 1015.4
20260510111341 60 55 2.6 7.8 0.00 0.00 0.00 81 1015.4
20260510110840 60 354 0.9 7.8 0.00 0.00 0.00 81 1015.2
20260510110725 60 0 0.9 5.2 0.00 0.00 0.00 80 1014.9
20260510105841 61 6 1.7 8.7 0.00 0.00 0.00 79 1014.9
20260510105738 61 87 1.7 8.7 0.00 0.00 0.00 78 1014.9
20260510104840 62 59 2.6 11.3 0.00 0.00 0.00 78 1014.7
20260510104339 62 56 3.5 11.3 0.00 0.00 0.00 78 1014.5
20260510103839 62 80 5.2 9.6 0.00 0.00 0.00 78 1014.7
20260510103339 62 49 0.9 8.7 0.00 0.00 0.00 78 1014.7
20260510102839 62 58 0.9 8.7 0.00 0.00 0.00 79 1014.9
20260510102339 62 86 1.7 9.6 0.00 0.00 0.00 79 1014.8
20260510102232 62 68 2.6 10.4 0.00 0.00 0.00 79 1014.7
20260510101340 62 16 2.6 10.4 0.00 0.00 0.00 79 1014.3
20260510101230 62 42 3.5 8.7 0.00 0.00 0.00 78 1014.3
20260510100340 62 73 1.7 6.1 0.00 0.00 0.00 78 1014.3
20260510095841 63 44 3.5 10.4 0.00 0.00 0.00 78 1014.7
20260510095340 62 11 2.6 11.3 0.00 0.00 0.00 79 1014.3
20260510094840 62 102 3.5 11.3 0.00 0.00 0.00 79 1013.9
20260510094339 62 87 6.1 11.3 0.00 0.00 0.00 78 1014.0
20260510093840 62 106 5.2 11.3 0.00 0.00 0.00 78 1014.2
20260510093339 62 110 2.6 12.2 0.00 0.00 0.00 78 1014.0
20260510092840 62 100 3.5 13.0 0.00 0.00 0.00 78 1013.8
20260510092340 62 102 8.7 13.0 0.00 0.00 0.00 78 1013.5
20260510091838 62 100 5.2 9.6 0.00 0.00 0.00 78 1013.3
20260510091338 62 89 7.0 9.6 0.00 0.00 0.00 78 1013.3
20260510090838 62 103 4.3 9.6 0.00 0.00 0.00 78 1013.3
20260510090340 62 116 4.3 9.6 0.00 0.00 0.00 78 1013.2
20260510090223 62 104 5.2 12.2 0.00 0.00 0.00 78 1012.9
20260510085340 62 110 7.0 12.2 0.00 0.00 0.00 77 1012.8
20260510084839 62 116 6.1 12.2 0.00 0.00 0.00 77 1012.9
20260510084340 62 116 6.1 12.2 0.00 0.00 0.00 77 1012.7
20260510083839 62 113 6.1 12.2 0.00 0.00 0.00 76 1012.8
20260510083341 62 103 5.2 14.8 0.00 0.00 0.00 76 1012.9
20260510083233 63 78 7.0 14.8 0.00 0.00 0.00 75 1012.8
20260510082341 63 103 6.1 14.8 0.00 0.00 0.00 75 1012.7
20260510081839 63 92 7.8 15.6 0.00 0.00 0.00 75 1012.7
20260510081340 63 82 9.6 15.6 0.00 0.00 0.00 74 1012.7
20260510080840 63 104 9.6 16.5 0.00 0.00 0.00 74 1012.6
20260510080728 64 89 8.7 17.4 0.00 0.00 0.00 73 1012.6
20260510075840 64 113 9.6 17.4 0.00 0.00 0.00 72 1012.4
20260510075339 65 99 8.7 17.4 0.00 0.00 0.00 72 1012.3
20260510074840 65 92 9.6 17.4 0.00 0.00 0.00 71 1012.2
20260510074340 65 90 7.8 16.5 0.00 0.00 0.00 71 1011.9
20260510073841 66 75 5.2 12.2 0.00 0.00 0.00 72 1011.7
20260510073339 66 103 5.2 14.8 0.00 0.00 0.00 71 1011.5
20260510073124 66 107 5.2 15.6 0.00 0.00 0.00 71 1011.4
20260510073008 66 93 7.0 15.6 0.00 0.00 0.00 71 1011.5
20260510071840 67 89 6.1 10.4 0.00 0.00 0.00 71 1011.5
20260510071340 67 69 5.2 10.4 0.00 0.00 0.00 71 1011.5
20260510070839 67 110 3.5 6.1 0.00 0.00 0.00 71 1011.5
20260510070341 67 13 0.9 4.3 0.00 0.00 0.00 71 1011.8
20260510065840 67 0 1.7 6.1 0.00 0.00 0.00 71 1012.2
20260510065339 67 34 1.7 10.4 0.00 0.00 0.00 71 1011.9
20260510064840 68 11 3.5 10.4 0.00 0.00 0.00 70 1011.9
20260510064342 68 3 3.5 9.6 0.00 0.00 0.00 71 1012.2
20260510064227 68 0 1.7 9.6 0.00 0.00 0.00 70 1012.2
20260510063731 68 37 2.6 8.7 0.00 0.00 0.00 70 1012.3
20260510063228 68 66 1.7 11.3 0.00 0.00 0.00 69 1011.9
20260510062519 69 94 2.6 13.9 0.00 0.00 0.00 68 1012.2
20260510062510 69 76 4.3 13.9 0.00 0.00 0.00 68 1012.2
20260510062427 69 61 1.7 12.2 0.00 0.00 0.00 69 1011.9
20260510060840 69 99 5.2 11.3 0.00 0.00 0.00 68 1012.2
20260510060341 70 83 4.3 11.3 0.00 0.00 0.00 67 1012.0
20260510055839 70 72 3.5 8.7 0.00 0.00 0.00 67 1011.9
20260510055339 70 25 2.6 10.4 0.00 0.00 0.00 66 1012.0
20260510054840 70 110 3.5 11.3 0.00 0.00 0.00 66 1011.9
20260510054341 70 116 3.5 11.3 0.00 0.00 0.00 65 1011.9
20260510053839 71 63 5.2 11.3 0.00 0.00 0.00 65 1011.8
20260510053341 71 69 3.5 7.8 0.00 0.00 0.00 64 1012.0
20260510052839 71 104 1.7 6.1 0.00 0.00 0.00 64 1012.4
20260510052339 71 0 3.5 6.1 0.00 0.00 0.00 64 1012.4
20260510051840 71 86 1.7 10.4 0.00 0.00 0.00 63 1011.9
20260510051625 72 94 2.6 13.0 0.00 0.00 0.00 62 1011.5
20260510051512 72 45 2.6 10.4 0.00 0.00 0.00 63 1011.7
20260510050339 72 113 5.2 13.0 0.00 0.00 0.00 62 1011.5
20260510045839 72 76 2.6 7.8 0.00 0.00 0.00 61 1011.4
20260510045339 72 109 3.5 8.7 0.00 0.00 0.00 61 1011.4
20260510044839 72 24 1.7 8.7 0.00 0.00 0.00 60 1011.4
20260510044725 73 104 3.5 7.8 0.00 0.00 0.00 59 1011.1
20260510043840 73 106 4.3 7.8 0.00 0.00 0.00 59 1011.1
20260510043727 73 121 4.3 8.7 0.00 0.00 0.00 58 1011.1
20260510042838 73 99 5.2 8.7 0.00 0.00 0.00 58 1010.9
20260510042339 73 100 4.3 8.7 0.00 0.00 0.00 58 1010.8
20260510041839 73 117 2.6 7.8 0.00 0.00 0.00 57 1010.9
20260510041338 73 100 2.6 7.8 0.00 0.00 0.00 56 1010.9
20260510040839 73 131 2.6 9.6 0.00 0.00 0.00 54 1010.9
20260510040338 73 114 4.3 9.6 0.00 0.00 0.00 52 1010.8
20260510035839 73 76 4.3 7.8 0.00 0.00 0.00 48 1010.7
20260510035338 73 94 3.5 8.7 0.00 0.00 0.00 45 1010.6
20260510034840 73 110 4.3 8.7 0.00 0.00 0.00 41 1010.7
20260510034340 74 137 3.5 8.7 0.00 0.00 0.00 46 1010.8
20260510033839 75 142 2.6 8.7 0.00 0.00 0.00 44 1010.5
20260510033339 75 116 5.2 8.7 0.00 0.00 0.00 38 1010.1
20260510032839 76 137 5.2 8.7 0.00 0.00 0.00 32 1010.1
20260510032339 76 87 2.6 8.7 0.00 0.00 0.00 26 1010.1
20260510032226 77 109 1.7 6.1 0.00 0.00 0.00 25 1010.0
20260510031338 77 78 1.7 6.1 0.00 0.00 0.00 25 1009.8
20260510031123 78 58 0.0 2.6 0.00 0.00 0.00 22 1009.4
20260510031006 78 104 0.9 4.3 0.00 0.00 0.00 25 1009.5
20260510025839 78 71 0.0 3.5 0.00 0.00 0.00 22 1009.3
20260510025724 79 0 0.9 5.2 0.00 0.00 0.00 20 1009.1
20260510024839 79 0 0.9 5.2 0.00 0.00 0.00 21 1008.9
20260510024338 78 34 1.7 2.6 0.00 0.00 0.00 20 1008.9
20260510023839 78 20 0.9 2.6 0.00 0.00 0.00 21 1008.8
20260510023724 77 34 0.9 2.6 0.00 0.00 0.00 24 1008.7
20260510022839 78 14 0.0 3.5 0.00 0.00 0.00 24 1008.6
20260510022339 78 58 1.7 3.5 0.00 0.00 0.00 24 1008.4
20260510021839 79 54 0.9 3.5 0.00 0.00 0.00 20 1008.3
20260510021339 80 100 0.0 3.5 0.00 0.00 0.00 18 1008.1
20260510020838 80 44 0.0 3.5 0.00 0.00 0.00 19 1007.9
20260510020338 81 87 0.0 3.5 0.00 0.00 0.00 17 1007.8
20260510020230 81 73 0.9 3.5 0.00 0.00 0.00 17 1007.7
20260510015339 80 99 0.0 2.6 0.00 0.00 0.00 18 1007.7
20260510014838 81 106 0.9 2.6 0.00 0.00 0.00 19 1007.6
20260510014340 80 82 0.9 2.6 0.00 0.00 0.00 21 1007.6
20260510013839 80 63 0.9 2.6 0.00 0.00 0.00 20 1007.5
20260510013340 81 75 0.0 2.6 0.00 0.00 0.00 22 1007.4
20260510013226 81 24 0.9 2.6 0.00 0.00 0.00 18 1007.2
20260510012338 81 28 0.0 0.9 0.00 0.00 0.00 19 1007.4
20260510011839 81 25 0.0 1.7 0.00 0.00 0.00 19 1007.2
20260510011339 82 21 0.9 1.7 0.00 0.00 0.00 19 1007.1
20260510010839 82 30 0.9 1.7 0.00 0.00 0.00 19 1007.2
20260510010338 84 4 0.0 3.5 0.00 0.00 0.00 18 1007.1
20260510005838 85 4 0.0 3.5 0.00 0.00 0.00 16 1007.1
20260510005338 86 358 0.9 2.6 0.00 0.00 0.00 16 1007.0
20260510004839 86 3 1.7 2.6 0.00 0.00 0.00 15 1007.0
20260510004724 86 21 0.9 4.3 0.00 0.00 0.00 16 1007.0
20260510004228 86 1 1.7 5.2 0.00 0.00 0.00 15 1007.1
20260510003338 87 0 1.7 5.2 0.00 0.00 0.00 15 1007.2
20260510002841 87 16 4.3 5.2 0.00 0.00 0.00 16 1007.2
20260510002338 87 52 0.9 3.5 0.00 0.00 0.00 14 1007.2
20260510001842 88 16 0.0 2.6 0.00 0.00 0.00 14 1007.1
20260510001338 88 286 0.0 4.3 0.00 0.00 0.00 13 1007.2
20260510000838 88 350 1.7 4.3 0.00 0.00 0.00 13 1007.2
20260510000341 88 358 1.7 7.8 0.00 0.00 0.00 14 1007.2
20260509235838 89 302 4.3 7.8 0.00 0.00 0.00 13 1007.4
20260509235339 89 333 1.7 4.3 0.00 0.00 0.00 13 1007.5
20260509234838 89 354 3.5 5.2 0.00 0.00 0.00 15 1007.5
20260509234338 90 0 3.5 7.8 0.00 0.00 0.00 12 1007.5
20260509233838 90 18 3.5 10.4 0.00 0.00 0.00 12 1007.4
20260509233730 90 0 1.7 11.3 0.00 0.00 0.00 12 1007.5
20260509232840 91 338 5.2 11.3 0.00 0.00 0.00 13 1007.5
20260509232340 90 305 1.7 10.4 0.00 0.00 0.00 16 1007.6
20260509231838 90 323 4.3 10.4 0.00 0.00 0.00 14 1007.7
20260509231338 90 296 2.6 13.0 0.00 0.00 0.00 16 1007.7
20260509230839 90 268 5.2 13.0 0.00 0.00 0.00 14 1007.7
20260509230339 91 314 2.6 12.2 0.00 0.00 0.00 13 1007.6
20260509225839 91 238 3.5 12.2 0.00 0.00 0.00 14 1007.7
20260509225338 91 326 6.1 12.2 0.00 0.00 0.00 13 1007.7
20260509224839 91 262 5.2 13.9 0.00 0.00 0.00 15 1007.8
20260509224338 91 285 6.1 13.9 0.00 0.00 0.00 14 1007.7
20260509223838 92 317 4.3 13.0 0.00 0.00 0.00 15 1007.7
20260509223339 92 344 5.2 13.0 0.00 0.00 0.00 14 1007.7
20260509222838 91 340 5.2 11.3 0.00 0.00 0.00 15 1007.7
20260509222339 91 207 5.2 12.2 0.00 0.00 0.00 14 1007.6
20260509221839 91 247 7.0 13.0 0.00 0.00 0.00 13 1007.6
20260509221340 91 276 3.5 13.0 0.00 0.00 0.00 15 1007.6
20260509221228 92 226 7.0 11.3 0.00 0.00 0.00 14 1007.7
20260509220338 92 250 7.0 11.3 0.00 0.00 0.00 14 1007.8
20260509215839 92 240 3.5 11.3 0.00 0.00 0.00 16 1007.8
20260509215338 92 259 4.3 13.9 0.00 0.00 0.00 15 1007.7
20260509214838 91 282 7.0 13.9 0.00 0.00 0.00 17 1007.8
20260509214726 90 303 0.9 13.9 0.00 0.00 0.00 16 1007.9
20260509213838 92 248 7.0 13.9 0.00 0.00 0.00 15 1008.0
20260509213338 92 268 5.2 12.2 0.00 0.00 0.00 17 1008.0
20260509213228 92 276 5.2 11.3 0.00 0.00 0.00 14 1008.0
20260509212338 92 295 4.3 11.3 0.00 0.00 0.00 15 1008.3
20260509211840 91 285 6.1 11.3 0.00 0.00 0.00 16 1008.1
20260509211437 92 219 2.6 13.0 0.00 0.00 0.00 16 1008.4
20260509211014 92 240 7.0 13.0 0.00 0.00 0.00 16 1008.4
20260509210227 91 0 6.1 12.2 0.00 0.00 0.00 19 1008.5
20260509205340 91 327 3.5 13.9 0.00 0.00 0.00 21 1008.7
20260509204838 92 224 5.2 13.9 0.00 0.00 0.00 19 1008.6
20260509204339 92 317 4.3 14.8 0.00 0.00 0.00 18 1008.7
20260509203837 92 307 5.2 14.8 0.00 0.00 0.00 20 1008.9
20260509203338 90 261 3.5 11.3 0.00 0.00 0.00 20 1009.0
20260509202838 91 344 5.2 11.3 0.00 0.00 0.00 20 1009.0
20260509202339 91 219 6.1 10.4 0.00 0.00 0.00 23 1009.0
20260509201838 90 252 3.5 10.4 0.00 0.00 0.00 21 1009.0
20260509201337 90 252 3.5 7.8 0.00 0.00 0.00 22 1009.1
20260509200839 90 282 3.5 12.2 0.00 0.00 0.00 22 1009.3
20260509200730 90 312 5.2 12.2 0.00 0.00 0.00 22 1009.4
20260509195840 89 265 2.6 10.4 0.00 0.00 0.00 21 1009.4
20260509195338 90 227 5.2 9.6 0.00 0.00 0.00 22 1009.5
20260509194837 90 228 3.5 9.6 0.00 0.00 0.00 23 1009.5
20260509194727 88 276 3.5 11.3 0.00 0.00 0.00 24 1009.6
20260509193839 89 312 1.7 14.8 0.00 0.00 0.00 22 1009.6
20260509193338 90 344 5.2 14.8 0.00 0.00 0.00 23 1009.8
20260509192839 91 245 7.0 11.3 0.00 0.00 0.00 23 1009.8
20260509192339 89 262 2.6 6.1 0.00 0.00 0.00 25 1009.9
20260509192227 87 341 2.6 9.6 0.00 0.00 0.00 25 1009.9
20260509191338 88 259 2.6 11.3 0.00 0.00 0.00 25 1010.0
20260509190837 89 235 7.8 11.3 0.00 0.00 0.00 25 1010.1
20260509190338 89 233 3.5 8.7 0.00 0.00 0.00 26 1010.1
20260509190124 87 221 4.3 11.3 0.00 0.00 0.00 26 1010.4
20260509190011 87 295 2.6 11.3 0.00 0.00 0.00 27 1010.1
20260509184838 87 247 4.3 13.0 0.00 0.00 0.00 25 1010.5
20260509184338 86 154 5.2 13.0 0.00 0.00 0.00 24 1010.6
20260509184221 87 252 5.2 13.0 0.00 0.00 0.00 26 1010.7
20260509183337 87 227 5.2 13.0 0.00 0.00 0.00 25 1010.6
20260509182837 87 240 7.8 13.0 0.00 0.00 0.00 25 1010.8
20260509182337 87 212 6.1 12.2 0.00 0.00 0.00 27 1010.8
20260509181839 86 240 4.3 12.2 0.00 0.00 0.00 26 1010.9
20260509181339 86 230 4.3 14.8 0.00 0.00 0.00 26 1011.0
20260509180838 86 235 7.8 14.8 0.00 0.00 0.00 27 1011.1
20260509180338 86 159 3.5 12.2 0.00 0.00 0.00 27 1011.3
20260509175838 87 254 3.5 12.2 0.00 0.00 0.00 27 1011.3
20260509175338 86 171 4.3 8.7 0.00 0.00 0.00 30 1011.4
20260509174837 86 231 4.3 10.4 0.00 0.00 0.00 31 1011.4
20260509174339 86 100 4.3 10.4 0.00 0.00 0.00 30 1011.5
20260509174126 84 196 4.3 11.3 0.00 0.00 0.00 31 1011.5
20260509174009 85 220 5.2 10.4 0.00 0.00 0.00 30 1011.5
20260509172838 84 251 5.2 13.0 0.00 0.00 0.00 32 1011.6
20260509172340 83 250 8.7 13.0 0.00 0.00 0.00 31 1011.9
20260509171840 84 250 2.6 12.2 0.00 0.00 0.00 31 1011.9
20260509171338 83 161 3.5 13.9 0.00 0.00 0.00 34 1011.9
20260509171226 82 214 8.7 14.8 0.00 0.00 0.00 32 1012.0
20260509170339 83 221 7.0 14.8 0.00 0.00 0.00 32 1012.2
20260509165838 83 202 5.2 15.6 0.00 0.00 0.00 32 1012.2
20260509165338 82 210 6.1 15.6 0.00 0.00 0.00 34 1012.2
20260509164838 82 171 7.0 13.9 0.00 0.00 0.00 32 1012.4
20260509164337 82 171 4.3 13.9 0.00 0.00 0.00 33 1012.4
20260509163837 82 97 3.5 11.3 0.00 0.00 0.00 34 1012.4
20260509163338 82 159 5.2 11.3 0.00 0.00 0.00 35 1012.4
20260509162838 82 192 5.2 14.8 0.00 0.00 0.00 35 1012.5
20260509162339 80 162 7.8 14.8 0.00 0.00 0.00 36 1012.6
20260509161837 80 142 6.1 13.9 0.00 0.00 0.00 37 1012.6
20260509161338 80 185 5.2 13.9 0.00 0.00 0.00 37 1012.6
20260509160837 80 142 7.0 13.9 0.00 0.00 0.00 35 1012.6
20260509160618 79 135 6.1 16.5 0.00 0.00 0.00 36 1012.7
20260509160507 79 166 5.2 16.5 0.00 0.00 0.00 37 1012.7
20260509155338 79 202 4.3 11.3 0.00 0.00 0.00 38 1012.6
20260509154838 78 180 6.1 12.2 0.00 0.00 0.00 39 1012.7
20260509154337 78 180 7.0 12.2 0.00 0.00 0.00 40 1012.9
20260509153839 78 171 6.1 10.4 0.00 0.00 0.00 40 1013.0
20260509153338 77 142 5.2 10.4 0.00 0.00 0.00 43 1012.9
20260509152838 76 204 2.6 8.7 0.00 0.00 0.00 42 1012.9
20260509152338 76 116 5.2 9.6 0.00 0.00 0.00 45 1013.0
20260509151837 76 130 5.2 9.6 0.00 0.00 0.00 43 1013.0
20260509151337 75 148 4.3 9.6 0.00 0.00 0.00 44 1013.2
20260509150836 74 158 3.5 6.1 0.00 0.00 0.00 46 1013.3
20260509150336 74 152 1.7 4.3 0.00 0.00 0.00 47 1013.3
20260509145837 73 110 0.0 5.2 0.00 0.00 0.00 50 1013.4
20260509145508 71 120 3.5 6.1 0.00 0.00 0.00 52 1013.4
20260509145458 71 128 0.9 5.2 0.00 0.00 0.00 53 1013.4
20260509145422 72 134 2.6 5.2 0.00 0.00 0.00 51 1013.4
20260509144121 71 155 3.5 6.1 0.00 0.00 0.00 55 1013.4
20260509144009 71 166 2.6 6.1 0.00 0.00 0.00 53 1013.5
20260509143228 69 192 2.6 6.1 0.00 0.00 0.00 58 1013.5
20260509142337 68 212 0.0 4.3 0.00 0.00 0.00 60 1013.5
20260509141838 68 134 0.9 4.3 0.00 0.00 0.00 61 1013.5
20260509141719 68 207 2.6 4.3 0.00 0.00 0.00 61 1013.6
20260509141223 67 107 0.9 3.5 0.00 0.00 0.00 62 1013.6
20260509140728 67 144 1.7 2.6 0.00 0.00 0.00 61 1013.6
20260509135839 66 216 0.9 3.5 0.00 0.00 0.00 61 1013.6
20260509135337 65 99 1.7 3.5 0.00 0.00 0.00 61 1013.6
20260509135228 65 138 0.0 0.0 0.00 0.00 0.00 60 1013.5
20260509134338 64 141 0.0 0.0 0.00 0.00 0.00 60 1013.5
20260509133837 64 0 0.0 0.0 0.00 0.00 0.00 59 1013.6
20260509133338 63 141 0.0 0.0 0.00 0.00 0.00 57 1013.6
20260509132837 62 141 0.0 0.0 0.00 0.00 0.00 57 1013.6
20260509132337 62 141 0.0 1.7 0.00 0.00 0.00 58 1013.7
20260509131836 61 141 0.0 2.6 0.00 0.00 0.00 56 1013.7
20260509131339 61 103 0.9 2.6 0.00 0.00 0.00 55 1013.6
20260509130838 60 100 0.9 1.7 0.00 0.00 0.00 57 1013.5
20260509130722 59 124 0.0 1.7 0.00 0.00 0.00 57 1013.5
20260509125838 58 159 0.0 1.7 0.00 0.00 0.00 57 1013.5
20260509125337 58 159 0.0 2.6 0.00 0.00 0.00 58 1013.4
20260509124838 57 182 0.9 2.6 0.00 0.00 0.00 59 1013.3
20260509124338 56 116 0.0 2.6 0.00 0.00 0.00 61 1013.4
20260509124222 55 168 0.0 1.7 0.00 0.00 0.00 61 1013.3
20260509123729 55 162 0.0 2.6 0.00 0.00 0.00 62 1013.3
20260509122837 54 180 0.0 2.6 0.00 0.00 0.00 62 1013.3
20260509122337 54 142 0.0 2.6 0.00 0.00 0.00 63 1013.3
20260509121838 53 190 0.9 2.6 0.00 0.00 0.00 63 1013.3
20260509121736 54 166 0.0 2.6 0.00 0.00 0.00 62 1013.2
20260509120838 53 148 0.9 2.6 0.00 0.00 0.00 63 1013.2
20260509120337 53 155 0.0 2.6 0.00 0.00 0.00 63 1013.3